Date String (YYYY-MM-DD hh:mm:ss) UTC,Instrument flags,absolute air pressure of the measurement (hPa),sample flow rate (lpm),inlet stack bypass flow (lpm),air temperature of the measurement (°C),ambient temperature measured by the external sensor (°C),aerosol sample conditioner tube jacket temperature (°C),OPC LED temperature (°C),internal box temperature (°C),relative humidity of the measurement (%),span deviation,mass concentration of particles derived from Lorenz-Mie calculation of OPC scattering (μg/m³),mass concentration of particles derived from Lorenz-Mie calculation of OPC scattering (μg/m³),mass concentration of particles derived from Lorenz-Mie calculation of OPC scattering (μg/m³)
DateTimeUTC,F1_M11,P_M11,Q1_M11,Q2_M11,T1_M11,T2_M11,T3_M11,T4_M11,T5_M11,U1_M11,ZSPAN_M11,X2_M11,X0_M11,X1_M11
2023-06-23 20:00:00,SystemResetWarning,0826.6,5.00,000.00,031.7,027.8,000.0,039.6,031.8,35.9,0002.5,0011.26,0017.40,0010.51
2023-06-23 20:01:00,SystemResetWarning,0826.6,5.02,000.00,032.0,028.0,000.0,039.6,032.0,33.9,0002.4,0011.24,0017.34,0010.52
2023-06-23 20:02:00,SystemResetWarning,0826.6,4.98,000.00,032.2,028.1,000.0,039.6,032.1,33.4,0002.6,0011.21,0017.42,0010.46
2023-06-23 20:03:00,SystemResetWarning,0826.6,5.00,000.00,032.4,026.8,000.0,039.6,032.1,35.1,0002.7,0011.17,0017.48,0010.37
2023-06-23 20:04:00,SystemResetWarning,0826.6,5.04,000.00,032.5,025.2,000.0,039.6,032.1,33.6,0002.8,0011.11,0017.42,0010.30
2023-06-23 20:05:00,SystemResetWarning,0826.6,4.97,000.00,032.6,024.8,000.0,039.7,032.0,33.6,0002.7,0011.04,0016.97,0010.24
2023-06-23 20:06:00,SystemResetWarning,0826.5,5.01,000.00,032.5,025.1,000.0,039.7,031.7,32.8,0002.7,0010.97,0016.86,0010.16
2023-06-23 20:07:00,SystemResetWarning,0826.4,5.01,000.00,032.4,025.6,000.0,039.8,031.5,33.7,0002.8,0010.80,0016.76,0010.03
2023-06-23 20:08:00,SystemResetWarning,0826.4,4.99,000.00,032.3,026.1,000.0,039.9,031.5,33.9,0002.8,0010.64,0016.32,0009.90
2023-06-23 20:09:00,SystemResetWarning,0826.3,4.98,000.00,032.3,026.6,000.0,039.9,031.6,35.1,0002.6,0010.48,0016.13,0009.77
2023-06-23 20:10:00,SystemResetWarning,0826.2,5.01,000.00,032.4,027.0,000.0,040.0,031.7,35.6,0002.6,0010.40,0016.64,0009.68
2023-06-23 20:11:00,SystemResetWarning,0826.3,5.01,000.00,032.6,027.3,000.0,040.0,031.9,34.2,0002.4,0010.30,0016.54,0009.57
2023-06-23 20:12:00,SystemResetWarning,0826.3,4.98,000.00,032.7,027.6,000.0,040.1,032.0,32.3,0002.1,0010.23,0016.51,0009.50
2023-06-23 20:13:00,SystemResetWarning,0826.4,5.02,000.00,032.7,027.9,000.0,040.1,032.1,31.5,0002.1,0010.18,0016.68,0009.45
2023-06-23 20:14:00,SystemResetWarning,0826.4,4.99,000.00,032.8,028.1,000.0,040.2,032.1,31.7,0002.0,0010.03,0016.83,0009.35
2023-06-23 20:15:00,SystemResetWarning,0826.4,4.99,000.00,032.8,028.1,000.0,040.2,032.1,32.1,0002.2,0009.92,0016.81,0009.26
2023-06-23 20:16:00,SystemResetWarning,0826.4,5.00,000.00,032.9,026.5,000.0,040.2,032.2,32.8,0002.6,0009.80,0016.55,0009.18
2023-06-23 20:17:00,SystemResetWarning,0826.4,5.00,000.00,032.8,025.1,000.0,040.2,032.1,32.5,0002.7,0009.74,0017.24,0009.09
2023-06-23 20:18:00,SystemResetWarning,0826.4,5.01,000.00,032.8,025.0,000.0,040.2,032.0,32.2,0002.8,0009.73,0017.25,0009.05
2023-06-23 20:19:00,SystemResetWarning,0826.4,5.01,000.00,032.6,025.3,000.0,040.2,031.6,32.9,0002.8,0009.78,0017.13,0009.08
2023-06-23 20:20:00,SystemResetWarning,0826.4,4.99,000.00,032.4,025.8,000.0,040.2,031.5,33.6,0002.8,0009.80,0017.35,0009.11
2023-06-23 20:21:00,SystemResetWarning,0826.4,5.00,000.00,032.3,026.2,000.0,040.2,031.6,34.2,0002.8,0009.82,0016.81,0009.14
2023-06-23 20:22:00,SystemResetWarning,0826.4,5.00,000.00,032.2,026.7,000.0,040.2,031.6,34.1,0002.9,0009.82,0016.66,0009.16
2023-06-23 20:23:00,SystemResetWarning,0826.4,5.00,000.00,032.2,027.1,000.0,040.2,031.7,33.3,0003.1,0009.88,0016.58,0009.21
2023-06-23 20:24:00,SystemResetWarning,0826.4,5.00,000.00,032.1,027.5,000.0,040.2,031.8,34.5,0003.2,0009.89,0016.78,0009.22
2023-06-23 20:25:00,SystemResetWarning,0826.4,4.99,000.00,032.1,027.7,000.0,040.2,031.8,34.3,0003.0,0009.96,0016.52,0009.26
2023-06-23 20:26:00,SystemResetWarning,0826.4,4.99,000.00,032.1,028.0,000.0,040.2,031.9,35.1,0002.9,0010.12,0017.34,0009.36
2023-06-23 20:27:00,SystemResetWarning,0826.4,5.02,000.00,032.2,028.1,000.0,040.2,032.1,35.4,0002.6,0010.28,0017.54,0009.50
2023-06-23 20:28:00,SystemResetWarning,0826.4,4.99,000.00,032.5,027.0,000.0,040.1,032.2,35.2,0002.4,0010.39,0017.08,0009.61
2023-06-23 20:29:00,SystemResetWarning,0826.4,5.01,000.00,032.7,025.3,000.0,040.0,032.2,32.7,0002.2,0010.43,0016.88,0009.67
2023-06-23 20:30:00,SystemResetWarning,0826.4,5.00,000.00,032.9,024.9,000.0,040.0,032.2,33.1,0002.2,0010.41,0016.78,0009.69
2023-06-23 20:31:00,SystemResetWarning,0826.4,5.00,000.00,032.7,025.1,000.0,040.0,031.8,32.9,0002.4,0010.37,0016.46,0009.67
2023-06-23 20:32:00,SystemResetWarning,0826.3,5.00,000.00,032.6,025.6,000.0,040.1,031.7,33.3,0002.3,0010.35,0016.41,0009.62
2023-06-23 20:33:00,SystemResetWarning,0826.3,5.00,000.00,032.5,026.1,000.0,040.1,031.6,33.6,0002.4,0010.30,0016.64,0009.54
2023-06-23 20:34:00,SystemResetWarning,0826.2,5.00,000.00,032.5,026.6,000.0,040.1,031.7,33.0,0002.5,0010.18,0016.52,0009.44
2023-06-23 20:35:00,SystemResetWarning,0826.2,4.97,000.00,032.4,027.0,000.0,040.2,031.7,35.1,0002.7,0010.13,0016.46,0009.39
2023-06-23 20:36:00,SystemResetWarning,0826.2,5.04,000.00,032.5,027.3,000.0,040.2,031.9,35.4,0002.7,0010.08,0016.17,0009.34
2023-06-23 20:37:00,SystemResetWarning,0826.3,4.96,000.00,032.6,027.6,000.0,040.2,032.0,34.5,0002.6,0009.97,0015.67,0009.27
2023-06-23 20:38:00,SystemResetWarning,0826.3,5.01,000.00,032.7,027.9,000.0,040.3,032.1,33.4,0002.5,0009.93,0015.56,0009.20
2023-06-23 20:39:00,SystemResetWarning,0826.4,5.02,000.00,032.8,028.2,000.0,040.3,032.2,33.1,0002.6,0009.88,0015.58,0009.13
2023-06-23 20:40:00,SystemResetWarning,0826.4,4.99,000.00,032.8,028.2,000.0,040.4,032.2,33.5,0002.8,0009.77,0015.51,0009.04
2023-06-23 20:41:00,SystemResetWarning,0826.4,4.99,000.00,032.8,026.7,000.0,040.3,032.3,32.3,0002.6,0009.76,0015.67,0008.97
2023-06-23 20:42:00,SystemResetWarning,0826.4,5.01,000.00,032.8,025.2,000.0,040.3,032.1,33.4,0002.7,0009.79,0016.14,0008.93
2023-06-23 20:43:00,SystemResetWarning,0826.4,4.99,000.00,032.8,025.0,000.0,040.3,032.0,34.2,0002.7,0009.78,0016.16,0008.93
2023-06-23 20:44:00,SystemResetWarning,0826.4,5.02,000.00,032.5,025.3,000.0,040.3,031.6,34.8,0002.9,0009.74,0015.57,0008.93
2023-06-23 20:45:00,SystemResetWarning,0826.4,5.00,000.00,032.5,025.7,000.0,040.3,031.6,34.4,0002.9,0009.79,0015.59,0008.95
2023-06-23 20:46:00,SystemResetWarning,0826.4,4.98,000.00,032.4,026.2,000.0,040.3,031.7,33.9,0002.9,0009.73,0015.42,0008.94
2023-06-23 20:47:00,SystemResetWarning,0826.4,5.02,000.00,032.4,026.7,000.0,040.3,031.8,33.0,0002.9,0009.68,0015.23,0008.90
2023-06-23 20:48:00,SystemResetWarning,0826.4,5.00,000.00,032.4,027.1,000.0,040.3,031.8,33.8,0003.0,0009.67,0014.79,0008.89
2023-06-23 20:49:00,SystemResetWarning,0826.4,4.99,000.00,032.3,027.5,000.0,040.3,031.9,33.3,0003.1,0009.61,0014.66,0008.86
2023-06-23 20:50:00,SystemResetWarning,0826.4,4.99,000.00,032.3,027.8,000.0,040.3,031.9,34.5,0003.0,0009.56,0014.59,0008.81
2023-06-23 20:51:00,SystemResetWarning,0826.4,5.02,000.00,032.3,028.0,000.0,040.3,032.0,33.5,0002.9,0009.59,0014.62,0008.82
2023-06-23 20:52:00,SystemResetWarning,0826.4,4.99,000.00,032.3,028.2,000.0,040.3,032.1,33.6,0002.7,0009.63,0014.67,0008.85
2023-06-23 20:53:00,SystemResetWarning,0826.4,4.99,000.00,032.3,027.1,000.0,040.2,032.1,33.6,0002.8,0009.61,0014.37,0008.87
2023-06-23 20:54:00,SystemResetWarning,0826.5,5.00,000.00,032.3,025.4,000.0,040.1,032.0,33.2,0002.7,0009.61,0014.26,0008.85
2023-06-23 20:55:00,SystemResetWarning,0826.6,5.01,000.00,032.3,024.9,000.0,040.1,032.0,33.4,0002.5,0009.60,0014.11,0008.85
2023-06-23 20:56:00,SystemResetWarning,0826.6,5.01,000.00,032.1,025.1,000.0,040.0,031.6,34.4,0002.4,0009.61,0014.12,0008.83
2023-06-23 20:57:00,SystemResetWarning,0826.6,4.99,000.00,031.9,025.6,000.0,040.0,031.4,34.7,0002.2,0009.58,0014.73,0008.79
2023-06-23 20:58:00,SystemResetWarning,0826.6,5.02,000.00,031.8,026.1,000.0,040.0,031.5,33.9,0002.0,0009.60,0014.95,0008.81
2023-06-23 20:59:00,SystemResetWarning,0826.6,5.00,000.00,031.8,026.6,000.0,040.0,031.5,34.5,0002.1,0009.70,0015.35,0008.86
